User: anonymous   Login
Location: Caltech
(34.1382°N, 118.1253°W)
Time: 10:32:21
(UTC-08:00)
Language:

Cosmos 2333 Rocket - Orbit

View from above orbital plane
View from above orbital plane
View from above satellite
View from above satellite

Ground track
Ground track

The orbit data is extracted from the following two-line orbital elements,

1 24298U 96051B   18054.48463413 -.00000142  00000-0 -50385-4 0  9991
2 24298  70.8396 252.4757 0016235 177.6213 182.4988 14.12464859107301
Epoch (UTC): 23 February 2018 11:37:52
Eccentricity: 0.0016235
inclination: 70.8396°
perigee height: 839 km
apogee height: 862 km
right ascension of ascending node: 252.4757°
argument of perigee: 177.6213°
revolutions per day: 14.12464859
mean anomaly at epoch: 182.4988°
orbit number at epoch: 10730

The dashed part of the orbit path shows where the satellite is in the earth's shadow,  

DLR